Location: *
(28.2408°N, 53.4600°E)
Time: 21:22:07
(UTC+00:00)

Cosmos 2151 Rocket - Pass Details

Date: 22 September 2019
Orbit: 618 x 642 km, 82.5° (Epoch: 17 October)

Event Time Altitude Azimuth Distance (km) Brightness Sun altitude
Rises 14:38:23 0° 193° (SSW) 2,889 7.1 -4.1°
Reaches altitude 10° 14:40:38 10° 198° (SSW) 1,983 6.4 -4.6°
Maximum altitude 14:44:57 57° 277° (W) 728 4.4 -5.6°
Drops below altitude 10° 14:49:16 10° 356° (N) 1,985 6.3 -6.5°
Sets 14:51:32 0° 1° (N) 2,892 7.0 -7.0°
